Tracking 29892 objects as of 21-Nov-2024
HD Live streaming from Space Station
objects crossing your sky now

STARLINK-30472

Track STARLINK-30472 now!
10-day predictions
STARLINK-30472 is classified as:


NORAD ID: 57901
Int'l Code: 2023-146L
Perigee: 565.4 km
Apogee: 567.1 km
Inclination: 43.0 °
Period: 95.8 minutes
Semi major axis: 6937 km
RCS: Unknown
Launch date: September 20, 2023
Source: United States (US)
Launch site: AIR FORCE EASTERN TEST RANGE (AFETR)
Your satellite tracking list
Your tracking list is empty




NASA's NSSDC Master Catalog

Two Line Element Set (TLE):
1 57901U 23146L   24326.11408217  .00000312  00000-0  38161-4 0  9998
2 57901  43.0034   6.1536 0001199 276.1040  83.9666 15.02535135 65783
Source of the keplerian elements: AFSPC